Showing default

AISTECHSAT-2, 43768

Orbit data source: Space-Track

AISTECHSAT-2, 43768 is a payload satellite owned by AISTech (ES) in SSO that was launched on Mon, 03 Dec 2018 UTC via an FALCON 9 launch vehicle from the Air Force Western Test Range (AFWTR). Payload-class satellites include a variety of spacecraft equipped with specific instruments for various scientific and technological missions. These include communications satellites like Starlink; space stations such as the ISS; scientific satellites like the Hubble; Earth observation satellites from companies like Planet Labs, Umbra, and HawkEye 360; GPS; miniature CubeSats for education and research; and military/defense satellites.

Loading next visibility...
Identifier
43768, 2018-099L
Orbit
SSO
Country
Flag of ESES / SPN
Related business
Manufacturer
AISTech
Mission
Operational Commercial Communications
Bus & Motor
CUBESAT 6U, Unknown motor
Mass
10 kg wet, 10 kg dry
Launch date (UTC)
2018-12-03 (7 years ago)
Launch vehicle
FALCON 9
Launch site
Air Force Western Test Range (AFWTR)
Object type
Payload
Rocket body
Debris
Shape & HBR
Box + 3 Pan, 0.3 m
Radar Cross Section
0.054 m², Small (<0.1 m²)

Expand to show TLE details & history
Last TLE update: 7 hours ago

TLE from 7 hours ago
0 AISTECHSAT-2
1 43768U 18099L   26132.09839858  .00003158  00000-0  17223-3 0  9994
2 43768  97.4324 180.9272 0006240  73.7450 286.4469 15.15070841406816
Epoch: 2026-05-12T02:21Z
TLE epoch observation values (Epoch: 2026-05-12T02:21:41.637Z)
Latitude
0.00004°
Longitude
-84.37394°
Altitude
522.63 km
Speed
7.603 km/s
True Right ascension
12h 03m 42s
True Declination
0° 00' 00"
Sunlit
Object was in full shadow at epoch
Visualization orbit readout
Latitude
Unknown
Longitude
Unknown
Altitude
Unknown
Speed
Unknown
Apparent Right ascension
Unknown
Apparent Declination
Unknown
Sunlit
N/A
Visualization observer readout
Local Sidereal Time
18:06:45
Azimuth
Unknown
Elevation
Unknown
Doppler factor
Unknown
Orbital elements
Apogee altitude
522.04 km
Perigee altitude
513.434 km
Semi-major axis
6,895.874 km
Eccentricity
0.00062
Inclination
97.4324°
RAAN
180.9272°
Arg. of periapsis
73.745°
True anomaly
286.37831°
Mean anomaly
286.4469°
Eccentric anomaly
286.4126°
Mean motion
3.79017 °/min
Orbital period
94.98 mins
BSTAR
0.00017223
Loading maneuver chart data...
Computing Atmospheric mass density...
Loading historical data...
Loading historical data...
Loading historical data...
Loading historical data...
Loading historical data...
Loading historical data...
Loading historical data...

Documentation

Showing up to 5 results
|